Overview Statistics Trail Chart Weather Telemetry Raw packets
 

This is the latest recevied weather packets stored in our database for station/object KC9DRE. If no packets are shown the sender has not sent any weather packets the latest 10 day(s).

<< 88 89 90 91 92 93 94 >>
Time Temp. Humidity Pressure Rain* Wind** Luminosity Snow
1777246151 20.56° C 53% 1014.9 hPa 0 mm - 44 W/m² -
1777245849 20.56° C 52% 1014.7 hPa 0 mm - 54 W/m² -
1777245547 21.11° C 51% 1014.9 hPa 0 mm - 54 W/m² -
1777245242 21.11° C 52% 1014.6 hPa 0 mm - 40 W/m² -
1777244938 21.11° C 53% 1014.7 hPa 0 mm - 59 W/m² -
1777244634 21.11° C 53% 1014.6 hPa 0 mm - 101 W/m² -
1777244330 21.11° C 53% 1014.5 hPa 0 mm - 125 W/m² -
1777244028 21.67° C 51% 1014.6 hPa 0 mm - 131 W/m² -
1777243725 21.67° C 49% 1014.6 hPa 0 mm - 144 W/m² -
1777243422 21.67° C 50% 1014.6 hPa 0 mm - 164 W/m² -
1777243118 21.67° C 51% 1014.6 hPa 0 mm - 187 W/m² -
1777242814 21.67° C 53% 1014.9 hPa 0 mm - 174 W/m² -
1777242511 21.67° C 54% 1014.6 hPa 0 mm - 207 W/m² -
1777242207 21.67° C 54% 1015 hPa 0 mm - 214 W/m² -
1777241905 21.67° C 52% 1015.1 hPa 0 mm - 217 W/m² -
1777241602 21.67° C 53% 1015.1 hPa 0 mm - 220 W/m² -
1777241300 22.22° C 53% 1015.1 hPa 0 mm - 200 W/m² -
1777240996 22.22° C 53% 1015 hPa 0 mm - 275 W/m² -
1777240694 22.22° C 53% 1015.1 hPa 0 mm - 305 W/m² -
1777240392 22.22° C 53% 1015.3 hPa 0 mm - 296 W/m² -
1777240089 22.78° C 51% 1015.1 hPa 0 mm - 307 W/m² -
1777239788 22.22° C 54% 1015.2 hPa 0 mm - 357 W/m² -
1777239483 22.78° C 56% 1015.1 hPa 0 mm - 377 W/m² -
1777239180 22.78° C 52% 1015.1 hPa 0 mm - 394 W/m² -
1777238877 22.78° C 49% 1015.2 hPa 0 mm - 406 W/m² -

* Rain latest hour (hover to see other rain measurements)
** Current wind speed in m/s (hover to see current wind gust speed)